TimeEST,TemperatureF,Dew PointF,Humidity,Sea Level PressureIn,VisibilityMPH,Wind Direction,Wind SpeedMPH,Gust SpeedMPH,PrecipitationIn,Events,Conditions,WindDirDegrees,DateUTC
12:53 AM,28.9,24.1,82,30.32,10.0,Calm,Calm,-,N/A,,Clear,0,2013-01-15 05:53:00
1:53 AM,28.9,24.1,82,30.30,10.0,Calm,Calm,-,N/A,,Clear,0,2013-01-15 06:53:00
2:53 AM,28.9,24.1,82,30.29,10.0,Calm,Calm,-,N/A,,Overcast,0,2013-01-15 07:53:00
3:53 AM,25.0,21.9,88,30.30,10.0,Calm,Calm,-,N/A,,Clear,0,2013-01-15 08:53:00
4:53 AM,25.0,21.0,85,30.29,10.0,Calm,Calm,-,N/A,,Partly Cloudy,0,2013-01-15 09:53:00
5:53 AM,24.8,21.2,86,30.28,10.0,Calm,Calm,-,N/A,,Overcast,0,2013-01-15 10:53:00
6:53 AM,30.0,21.0,69,30.32,10.0,NNW,5.8,-,N/A,,Mostly Cloudy,330,2013-01-15 11:53:00
7:53 AM,30.9,19.9,64,30.34,10.0,NW,4.6,-,N/A,,Clear,320,2013-01-15 12:53:00
8:53 AM,32.0,19.9,61,30.36,10.0,NNW,4.6,-,N/A,,Scattered Clouds,330,2013-01-15 13:53:00
9:53 AM,34.0,19.9,56,30.36,10.0,Calm,Calm,-,N/A,,Overcast,0,2013-01-15 14:53:00
10:53 AM,34.0,19.9,56,30.35,10.0,Calm,Calm,-,N/A,,Overcast,0,2013-01-15 15:53:00
11:53 AM,34.0,19.0,54,30.33,10.0,Calm,Calm,-,N/A,,Overcast,0,2013-01-15 16:53:00
12:53 PM,34.0,23.0,64,30.32,10.0,Calm,Calm,-,N/A,,Overcast,0,2013-01-15 17:53:00
1:53 PM,35.1,21.9,59,30.30,10.0,SSE,4.6,-,N/A,,Mostly Cloudy,160,2013-01-15 18:53:00
2:53 PM,35.1,21.0,57,30.28,10.0,ESE,9.2,-,N/A,,Clear,120,2013-01-15 19:53:00
3:53 PM,34.0,19.9,56,30.30,10.0,SE,4.6,-,N/A,,Clear,140,2013-01-15 20:53:00
4:53 PM,32.0,19.9,61,30.30,10.0,SE,6.9,-,N/A,,Clear,140,2013-01-15 21:53:00
5:53 PM,30.0,19.9,66,30.31,10.0,Calm,Calm,-,N/A,,Clear,0,2013-01-15 22:53:00
6:53 PM,27.0,21.0,78,30.31,10.0,Calm,Calm,-,N/A,,Clear,0,2013-01-15 23:53:00
7:53 PM,28.0,21.9,78,30.30,10.0,NNW,3.5,-,N/A,,Clear,340,2013-01-16 00:53:00
8:53 PM,26.1,23.0,88,30.29,10.0,Calm,Calm,-,N/A,,Clear,0,2013-01-16 01:53:00
9:53 PM,27.0,23.0,85,30.27,10.0,Calm,Calm,-,N/A,,Clear,0,2013-01-16 02:53:00
10:53 PM,27.0,24.1,89,30.27,10.0,Calm,Calm,-,N/A,,Clear,0,2013-01-16 03:53:00
11:53 PM,28.0,23.0,81,30.26,10.0,Calm,Calm,-,N/A,,Clear,0,2013-01-16 04:53:00